AirNav   Everest Fuels
 
 378 users online  

5TX0 Hidden Valley Airpark
Shady Shores, Texas, USA

GOING TO SHADY SHORES?


FAA INFORMATION EFFECTIVE 16 JUNE 2022

Location

FAA Identifier: 5TX0
Lat/Long: 33-10-24.4310N 097-03-05.0340W
33-10.407183N 097-03.083900W
33.1734531,-97.0513983
(estimated)
Elevation: 611 ft. / 186 m (estimated)
Variation: 07E (1985)
From city: 3 miles NW of SHADY SHORES, TX
Time zone: UTC -5 (UTC -6 during Standard Time)
Zip code: 76208

Airport Operations

Airport use: Private use. Permission required prior to landing
Activation date: 11/1967
Control tower: no
ARTCC: FORT WORTH CENTER
FSS: FORT WORTH FLIGHT SERVICE STATION
Attendance: UNATNDD
Wind indicator: yes
Segmented circle: yes

Airport Communications

CTAF: 122.9
WX ASOS at DTO (8 nm W): 119.325 (940-383-8457)
WX AWOS-3PT at ADS (16 nm SE): PHONE 972-386-4855
WX ASOS at DFW (17 nm S): PHONE 972-615-2608
WX ASOS at AFW (17 nm SW): PHONE 817-491-6188

Airport Services

Fuel available: 100LL
100LL:FUEL CO-OP MEMBERS ONLY
Airframe service: NONE
Powerplant service: NONE

Runway Information

Runway 17/35

Dimensions: 2600 x 35 ft. / 792 x 11 m
Surface: asphalt
RUNWAY 17  RUNWAY 35
Traffic pattern: leftleft
Obstructions: none50 ft. trees, 2000 ft. from runway

Airport Ownership and Management from official FAA records

Ownership: Privately-owned
Owner: HIDDEN VALLEY HOA
99 HIDDEN VALLEY AIRPARK
DENTON, TX 76208
Phone 940-300-2443
Manager: JOHN WATSON/DAVID VALDEZ
114 HIDDEN VALLEY AIRPARK
DENTON, TX 76208
Phone 940-300-2443
ASST MANAGER: 817-939-6400

Airport Operational Statistics

Aircraft based on the field: 76
Single engine airplanes: 69
Multi engine airplanes: 5
Helicopters: 2
    

Additional Remarks

REMOTE CTL AIRFIELD AND REMOTE CTL OPS SOUTHWEST OF RWY END 35. REMOTE CTL PILOTS MNT UNICOM 122.9.
FOR CD CTC REGIONAL APCH AT 972-615-2799.

Instrument Procedures

There are no published instrument procedures at 5TX0.

Some nearby airports with instrument procedures:

KDTO - Denton Enterprise Airport (8 nm W)
KADS - Addison Airport (16 nm SE)
KDFW - Dallas-Fort Worth International Airport (17 nm S)
KAFW - Fort Worth Alliance Airport (17 nm SW)
KDAL - Dallas Love Field Airport (22 nm SE)
 
Loc | Ops | Rwys | IFR | FBO | Links
Com | Nav | Svcs | Stats | Notes

City of Fort Worth
 
Area around 5TX0 (Hidden Valley Airpark)
 
Road maps at: MapQuest Bing Google
 
Aerial photo
WARNING: Photo may not be current or correct
Aerial photo of 5TX0 (Hidden Valley Airpark)
Photo taken 06-Dec-2016
looking south

Do you have a better or more recent aerial photo of Hidden Valley Airpark that you would like to share? If so, please send us your photo.

 
Sectional chart

 
Airport distance calculator
Flying to Hidden Valley Airpark? Find the distance to fly.

From to 5TX0

Sunrise and sunset
Times for 02-Jul-2022
 Local
(UTC-5)
 Zulu
(UTC)
Morning civil twilight05:5510:55
Sunrise06:2411:24
Sunset20:4001:40
Evening civil twilight21:0902:09

Current date and time
Zulu (UTC)  02-Jul-2022 09:36:12
Local (UTC-5)  02-Jul-2022 04:36:12
 
METAR
KDTO 
8nm W 
020853Z AUTO 15005KT 10SM CLR 27/21 A2992 RMK AO2 SLP122 T02670211 58003
KDFW 
16nm S 
020853Z 17010KT 10SM FEW250 27/21 A2991 RMK AO2 SLP117 T02670206 58003
KADS 
17nm SE 
020915Z AUTO 15006KT 10SM CLR 26/21 A2994 RMK AO2 T02560209
KAFW 
18nm SW 
020853Z 16009KT 10SM CLR 27/21 A2991 RMK AO2 SLP111 T02670206 58002
TAF
KDFW 
16nm S 
020520Z 0206/0312 15010KT P6SM FEW250 FM021000 15010KT P6SM SCT020 FM021500 17008KT P6SM FEW040 SCT100 FM021900 14006KT P6SM VCSH SCT050 FM022300 16010KT P6SM SCT120
KAFW 
18nm SW 
020520Z 0206/0306 15010KT P6SM FEW250 FM021000 15010KT P6SM FEW020 FM021500 17008KT P6SM FEW040 SCT100 FM021900 14006KT P6SM VCSH SCT050 FM022300 16010KT P6SM SCT120
NOTAMs
Click for the latest NOTAMs
NOTAMs are issued by the DoD/FAA and will open in a separate window not controlled by AirNav.

 

 
 

Would you like to see your business listed on this page?

 If your business provides an interesting product or service to pilots, flight crews, aircraft, or users of the Hidden Valley Airpark, you should consider listing it here.  To start the listing process, click on the button below
 
Add a business
 

Other Pages about Hidden Valley Airpark

www.hiddenvalleyairpark.org
 
Update a link
 
Copyright © AirNav, LLC. All rights reserved. Privacy Policy  Contact